PST,Max TemperatureF,Mean TemperatureF,Min TemperatureF,Max Dew PointF,MeanDew PointF,Min DewpointF,Max Humidity, Mean Humidity, Min Humidity, Max Sea Level PressureIn, Mean Sea Level PressureIn, Min Sea Level PressureIn, Max VisibilityMiles, Mean VisibilityMiles, Min VisibilityMiles, Max Wind SpeedMPH, Mean Wind SpeedMPH, Max Gust SpeedMPH,PrecipitationIn, CloudCover, Events, WindDirDegrees
2013-2-1,62,47,32,43,38,32,100,78,39,30.24,30.20,30.14,10,9,1,9,2,,0.00,0,,19
2013-2-2,64,50,37,45,39,36,100,79,42,30.29,30.23,30.20,10,8,1,6,1,,0.00,0,,43
2013-2-3,60,46,33,45,40,32,100,81,55,30.24,30.17,30.11,10,7,1,8,1,,0.00,0,,126
2013-2-4,62,48,33,48,41,34,100,80,55,30.17,30.11,30.05,10,9,3,7,2,,0.00,0,,106
2013-2-5,55,45,35,43,40,36,100,84,62,30.13,30.07,30.03,10,10,7,12,6,,0.00,1,,132
2013-2-6,59,46,32,45,37,32,100,78,39,30.18,30.13,30.09,10,7,0,13,3,,0.00,3,,171
2013-2-7,55,48,41,45,38,32,93,74,44,30.15,30.07,29.98,10,10,5,16,9,,0.02,5,,151
2013-2-8,55,44,32,39,32,28,100,70,36,29.99,29.95,29.90,10,10,2,18,6,24,0.00,2,,337
2013-2-9,55,42,30,32,29,27,93,66,36,30.09,30.03,29.96,10,10,10,10,5,,0.00,0,,118
2013-2-10,60,44,28,36,31,23,100,64,34,30.14,30.07,29.99,10,10,10,14,6,16,0.00,0,,8
2013-2-11,62,48,33,34,29,21,87,54,30,30.24,30.15,30.06,10,10,10,14,7,,0.00,0,,136
2013-2-12,59,46,32,37,34,30,100,71,39,30.38,30.31,30.24,10,10,7,10,5,,0.00,0,,63
2013-2-13,60,46,32,41,36,30,100,75,42,30.33,30.27,30.20,10,10,7,8,3,,0.00,0,,75
2013-2-14,68,50,32,45,39,32,100,74,37,30.26,30.20,30.15,10,9,5,10,2,,0.00,0,,103
2013-2-15,68,50,33,46,39,32,100,74,32,30.29,30.25,30.22,10,10,7,8,3,,0.00,0,,72
2013-2-16,66,50,35,43,37,32,93,68,32,30.26,30.13,30.02,10,10,10,7,3,,0.00,0,,49
2013-2-17,64,48,33,43,38,32,93,71,37,30.04,29.99,29.94,10,10,10,9,3,,0.00,0,,10
2013-2-18,59,47,35,43,38,34,93,70,51,30.01,29.95,29.89,10,10,10,18,7,23,0.00,2,,159
2013-2-19,46,39,32,43,37,30,100,83,71,29.91,29.81,29.72,10,10,5,21,13,23,0.08,5,,151
2013-2-20,59,42,26,36,31,27,100,76,31,30.01,29.92,29.81,10,8,0,18,4,24,0.00,1,,352
2013-2-21,60,46,33,37,32,28,100,68,29,30.15,30.10,30.02,10,10,10,15,5,21,0.00,1,,356
2013-2-22,60,45,30,37,34,28,100,64,34,30.24,30.18,30.13,10,10,10,13,3,,0.00,1,,145
2013-2-23,59,47,35,43,32,23,93,57,25,30.23,30.17,30.11,10,10,10,20,13,26,0.00,1,,331
2013-2-24,62,48,35,32,28,25,87,54,24,30.23,30.19,30.14,10,10,10,20,10,24,0.00,0,,334
2013-2-25,62,48,33,36,32,30,87,58,30,30.27,30.21,30.16,10,10,10,10,5,,0.00,0,,53
2013-2-26,64,47,30,32,29,23,100,58,22,30.21,30.16,30.11,10,10,10,23,8,30,0.00,0,,340
2013-2-27,68,49,30,41,32,27,87,58,26,30.34,30.27,30.19,10,10,10,9,2,,0.00,0,,112
2013-2-28,69,52,35,41,37,32,93,60,27,30.44,30.38,30.34,10,10,10,13,3,,0.00,1,,352